Regional Weather Roundup
Issued by NWS

Home | Current Version | Previous Version | Text Only | Print | Product List | Glossary Off
Versions: 1 2 3 4 5 6 7 8 9 10 11 12 13 14 15 16 17 18 19 20 21 22 23 24 25 26 27 28 29 30 31 32 33 34 35 36 37 38 39 40 41 42 43 44 45 46 47 48 49 50

000
ASUS43 KLMK 171902
RWRKY
KENTUCKY REGIONAL WEATHER ROUNDUP
NATIONAL WEATHER SERVICE LOUISVILLE KY
200 PM EST WED DEC 17 2014

NOTE "FAIR" INDICATES FEW OR NO CLOUDS BELOW 12,000 FEET
WITH NO SIGNIFICANT WEATHER AND/OR OBSTRUCTIONS TO VISIBILITY.

KYZ001>023-026-027-061>063-070>075-172000-
WESTERN AND SOUTH CENTRAL KENTUCKY

CITY           SKY/WX    TMP DP  RH WIND       PRES   REMARKS
PADUCAH        SUNNY     39  26  59 N5        30.28F
HENDERSON      CLOUDY    34  23  64 W5        30.27F WCI  30
OWENSBORO      CLOUDY    35  26  70 NW12      30.27F WCI  27
HOPKINSVILLE   SUNNY     39  28  63 VRB3      30.26F
BOWLING GREEN  MOSUNNY   41  27  57 CALM      30.26F
GLASGOW        NOT AVBL
$$

KYZ024-025-028>034-038-045-046-053-172000-
NORTH CENTRAL KENTUCKY

CITY           SKY/WX    TMP DP  RH WIND       PRES   REMARKS
LOUISVILLE/SDF CLOUDY    35  25  66 W7        30.25F WCI  29
LOUISVILLE/LOU PTSUNNY   33  24  69 W5        30.25F WCI  29
FORT KNOX      CLOUDY    34  27  75 W8        30.22F WCI  27
$$

KYZ035>037-039>044-047>052-055>060-089>105-172000-
NORTHEAST KENTUCKY

CITY           SKY/WX    TMP DP  RH WIND       PRES   REMARKS
LEXINGTON      CLOUDY    34  27  75 W8        30.21F WCI  27
COVINGTON      CLOUDY    32  23  69 W10       30.20F WCI  24
FRANKFORT      CLOUDY    34  26  72 W8        30.21F WCI  27
$$

KYZ054-064>069-076>088-106>120-172000-
SOUTHEAST KENTUCKY

CITY           SKY/WX    TMP DP  RH WIND       PRES   REMARKS
JACKSON        CLOUDY    38  30  73 VRB5      30.17F WCI  34
LONDON         CLOUDY    38  28  67 SW6       30.19F WCI  33
SOMERSET       NOT AVBL
MIDDLESBORO    NOT AVBL
MONTICELLO     CLOUDY    38  29  70 SW6       30.24F WCI  33
$$




USA.gov is the U.S. government's official web portal to all federal, state and local government web resources and services.